User: anonymous   Login
Location: Nebula Knoll Observatory
(43.6666°N, 71.0000°W)
Time: 14:25:13
(UTC-05:00)
Language:

Cosmos 1782 - Orbit

View from above orbital plane
View from above orbital plane
View from above satellite
View from above satellite

Ground track
Ground track

The orbit data is extracted from the following two-line orbital elements,

1 16986U 86074A   16043.92039902 +.00001532 +00000-0 +10355-3 0  9991
2 16986 082.5042 237.9277 0010369 208.0704 151.9966 15.05835161575874
Epoch (UTC): 12 February 2016 22:05:22
Eccentricity: 0.0010369
inclination: 82.5042°
perigee height: 542 km
apogee height: 556 km
right ascension of ascending node: 237.9277°
argument of perigee: 208.0704°
revolutions per day: 15.05835161
mean anomaly at epoch: 151.9966°
orbit number at epoch: 57587

The dashed part of the orbit path shows where the satellite is in the earth's shadow,  

DLR